Flag for Canada Weather past 2 weeks in Stonewall, Manitoba, Canada

Now
3 °F

Passing clouds.


Feels Like: -20 °F
Forecast: -4 / 19 °F
Wind: 25 mph from North

Location: Winnipeg Int. Airportman.

Current Time: Mar 3, 2015 at 12:49:46 PM

Latest Report: Mar 3, 2015 at 12:00 PM


Visibility: 15 mi

Pressure: 29.92 "Hg

Humidity: 60%

Dew point: -8 °F

Location of StonewallLocation

Historic Weather in Stonewall — Graph

°F

Stonewall temperature yesterday

Maximum temperature yesterday: 23 °F (at 3:00 PM)
Minimum temperature yesterday: -6 °F (at 7:00 AM)
Average temperature yesterday: 12 °F

Past Weeks' High & Low Weather Summary

 TemperatureHumidityPressure
High27 °F (Feb 23, 9:00 PM)93% (Feb 24, 12:00 AM)30.85 "Hg (Feb 24, 12:00 AM)
Low-27 °F (Feb 22, 7:00 AM)50% (Feb 25, 2:00 PM)29.70 "Hg (Feb 23, 10:46 PM)
Average-1 °F69%30.25 "Hg
* Reported Feb 16 11:00 AM — Mar 3 11:00 AM, Stonewall, Weather by CustomWeather, © 2015

Note: Actual official high and low records may vary slightly from our data, if they occured in-between our weather recording intervals... More about our weather records

Advertising

Stonewall weather history for previous 24 hours

 ConditionsComfort  
Time TempWeatherWind HumidityBarometerVisibility
11:00 AM
Tue, Mar 3
3 °FPassing clouds.30 mph60%29.92 "Hg15 mi
10:00 AM3 °FSunny.26 mph60%29.91 "Hg15 mi
9:00 AM3 °FPassing clouds.26 mph66%29.90 "Hg15 mi
8:00 AM3 °FBroken clouds.20 mph78%29.88 "Hg15 mi
7:00 AM5 °FPassing clouds.16 mph72%29.88 "Hg15 mi
6:00 AM7 °FPassing clouds.22 mph78%29.84 "Hg15 mi
5:00 AM9 °FPassing clouds.24 mph78%29.82 "Hg15 mi
4:00 AM10 °FPassing clouds.24 mph79%29.81 "Hg15 mi
3:00 AM14 °FLight snow. Partly cloudy.26 mph79%29.78 "Hg15 mi
2:00 AM19 °FLight snow. Passing clouds.22 mph86%29.75 "Hg10 mi
1:00 AM19 °FOvercast.16 mph79%29.73 "Hg15 mi
12:00 AM21 °FPassing clouds.15 mph80%29.73 "Hg15 mi
11:00 PM
Mon, Mar 2
23 °FOvercast.23 mph74%29.74 "Hg15 mi
10:00 PM23 °FPassing clouds.21 mph74%29.76 "Hg15 mi
9:00 PM23 °FPassing clouds.20 mph74%29.78 "Hg15 mi
8:00 PM23 °FPassing clouds.25 mph74%29.83 "Hg15 mi
7:00 PM23 °FPartly cloudy.23 mph68%29.87 "Hg15 mi
6:00 PM23 °FPartly sunny.23 mph68%29.92 "Hg15 mi
5:00 PM23 °FBroken clouds.28 mph68%29.94 "Hg15 mi
4:00 PM23 °FPartly sunny.28 mph63%29.98 "Hg15 mi
3:00 PM23 °FPartly sunny.21 mph63%30.03 "Hg15 mi
2:00 PM19 °FPartly sunny.23 mph68%30.08 "Hg15 mi
1:00 PM18 °FPartly sunny.18 mph68%30.15 "Hg15 mi
12:00 PM14 °FPartly sunny.17 mph67%30.20 "Hg15 mi
Weather by CustomWeather, © 2015

See weather overviewHow to use our weather pages